Home   Weather   Churchill   Past weeks

Flag for Canada Past Weather in Churchill, Manitoba, Canada — Yesterday and Last 2 Weeks

Now
19 °F

Light snow. Low clouds.


Feels Like: 5 °F
Forecast: 18 / 19 °F
Wind: 16 mph from East

Location: Churchill

Current Time: Jan 20, 2017 at 2:00:29 am

Latest Report: Jan 20, 2017 at 1:00 am


Visibility: 15 mi

Pressure: 29.60 "Hg

Humidity: 93%

Dew Point: 18 °F

Location of ChurchillLocation

Past Weather in Churchill — Graph

°F

Churchill Temperature Yesterday

Maximum temperature yesterday: 21 °F (at 11:29 am)
Minimum temperature yesterday: 10 °F (at 12:00 am)
Average temperature yesterday: 19 °F

High & Low Weather Summary for the Past Weeks

 TemperatureHumidityPressure
High32 °F (Jan 17, 3:00 pm)100% (Jan 17, 3:05 pm)30.33 "Hg (Jan 17, 3:05 pm)
Low-29 °F (Jan 13, 9:00 am)62% (Jan 8, 12:00 pm)28.99 "Hg (Jan 17, 5:04 pm)
Average-8 °F79%29.84 "Hg
* Reported Jan 5 1:00 am — Jan 20 1:00 am, Churchill, Weather by CustomWeather, © 2017

Note: Actual official high and low records may vary slightly from our data, if they occured in-between our weather recording intervals... More about our weather records

Advertising

Churchill Weather History for the Previous 24 Hours

Scroll right to see more
 ConditionsComfort  
Time TempWeatherWind HumidityBarometerVisibility
1:00 am
Fri, Jan 20
19 °FLight snow. Low clouds.16 mph93%29.60 "Hg15 mi
12:00 am19 °FLight snow. Low clouds.13 mph93%29.59 "Hg15 mi
11:00 pm
Thu, Jan 19
19 °FLight snow. Low clouds.9 mph93%29.58 "Hg15 mi
10:00 pm19 °FLight snow. Low clouds.8 mph100%29.57 "Hg15 mi
9:00 pm19 °FLight snow. Low clouds.13 mph100%29.53 "Hg10 mi
8:00 pm21 °FLight snow. Low clouds.13 mph93%29.53 "Hg10 mi
7:00 pm21 °FLight snow. Low clouds.12 mph100%29.52 "Hg10 mi
6:00 pm21 °FLight snow. Ice fog.10 mph100%29.50 "Hg6 mi
5:00 pm21 °FLight snow. Mostly cloudy.8 mph100%29.49 "Hg15 mi
4:00 pm21 °FLight snow. Low clouds.8 mph100%29.47 "Hg15 mi
3:00 pm21 °FLight snow. More clouds than sun.10 mph100%29.45 "Hg15 mi
2:00 pm21 °FLight snow. Overcast.8 mph100%29.45 "Hg4 mi
1:36 pm21 °FLight snow. Overcast.8 mph100%29.46 "Hg3 mi
1:00 pm21 °FLight snow. Overcast.9 mph100%29.46 "Hg2 mi
12:35 pm21 °FLight snow. Overcast.8 mph93%29.45 "Hg1 mi
12:00 pm21 °FLight snow. Overcast.13 mph93%29.44 "Hg1 mi
11:29 am21 °FLight snow. Overcast.17 mph93%29.44 "Hg1 mi
11:00 am19 °FLight snow. Mostly cloudy.20 mph100%29.44 "Hg1 mi
10:00 am19 °FLight snow. Overcast.21 mph100%29.48 "Hg1 mi
9:49 am19 °FLight snow. Overcast.18 mph100%29.49 "Hg1 mi
9:41 am19 °FLight snow. Mostly cloudy.18 mph93%29.49 "Hg2 mi
9:00 am19 °FLight snow. More clouds than sun.17 mph93%29.49 "Hg3 mi
8:00 am18 °FLight snow. Mostly cloudy.18 mph100%29.50 "Hg3 mi
7:00 am18 °FLight snow. Ice fog.20 mph93%29.52 "Hg5 mi
6:16 am18 °FLight snow. Ice fog.16 mph93%29.54 "Hg5 mi
6:00 am18 °FLight snow. Ice fog.16 mph93%29.55 "Hg5 mi
5:00 am18 °FLight snow. Low clouds.14 mph93%29.56 "Hg5 mi
4:00 am16 °FLight snow. Low clouds.15 mph100%29.57 "Hg7 mi
3:00 am14 °FLight snow. Low clouds.13 mph100%29.59 "Hg10 mi
2:00 am12 °FLight snow. Low clouds.10 mph100%29.62 "Hg10 mi
Weather by CustomWeather, © 2017

See weather overviewHow to use our weather pages